Regional Weather Roundup
Issued by NWS

Home | Current Version | Previous Version | Graphics & Text | Print | Product List | Glossary On
Versions: 1 2 3 4 5 6 7 8 9 10 11 12 13 14 15 16 17 18 19 20 21 22 23 24 25 26 27 28 29 30 31 32 33 34 35 36 37 38 39 40 41 42 43 44 45 46 47 48 49 50
183
ASUS43 KIND 261559
RWRIN

WEATHER ROUNDUP FOR INDIANA
NATIONAL WEATHER SERVICE INDIANAPOLIS IN
1200 PM EDT SUN MAR 26 2017

NOTE: "FAIR" INDICATES FEW OR NO CLOUDS BELOW 12,000 FEET WITH NO
SIGNIFICANT WEATHER AND/OR OBSTRUCTIONS TO VISIBILITY.

* - STATION DOES NOT REPORT WEATHER SUCH AS PRECIPITATION OR FOG.

+ - STATION NOT QUALITY CONTROLLED BY THE NATIONAL WEATHER SERVICE.
    USE DATA WITH CAUTION...ESPECIALLY DEWPOINT AND RELATIVE
    HUMIDITY OBSERVATIONS.

INZ001>003-010>013-019-020-261700-
NORTHWEST INDIANA

CITY           SKY/WX    TMP DP  RH WIND       PRES   REMARKS
GARY /AIRPORT/ CLOUDY    57  55  94 SE8       29.86S
VALPARAISO     CLOUDY    57  55  94 S7        29.87F

$$

LMZ046-743>745-261700-
SOUTHERN LAKE MICHIGAN

STATION/POSITION TIME  TEMP    WIND        PRES    WAVE
                       AIR SEA DIR/SP/G            HT
                 (UTC) (F)     (DEG/KT/KT) (MB)    (FT)
BURNS HARBOR     1540   56     170/  8/ 14 1011.9S
MICHIGAN CITY    1530   54     140/  9/ 12   N/A

$$

INZ004-005-014>016-021>024-261700-
NORTH CENTRAL INDIANA

CITY           SKY/WX    TMP DP  RH WIND       PRES   REMARKS
ELKHART        RAIN      50  48  93 SE7       29.90F
GOSHEN         CLOUDY    50  47  89 SE12      29.90F FOG
PERU/GRISSOM   PTSUNNY   57  57 100 S14       29.89S
SOUTH BEND     LGT RAIN  51  51 100 SE10      29.90S FOG

$$

INZ006>009-017-018-025>027-261700-
NORTHEAST INDIANA

CITY           SKY/WX    TMP DP  RH WIND       PRES   REMARKS
ANGOLA *+      CLOUDY    43  43 100 SE7       29.94F
FORT WAYNE     LGT RAIN  49  47  93 E7        29.94F FOG
KENDALLVILLE + LGT RAIN  45  45 100 SE10      29.94F

$$

INZ028-029-035-036-043>045-051>053-261700-
WEST CENTRAL INDIANA

CITY           SKY/WX    TMP DP  RH WIND       PRES   REMARKS
CRAWFORDSVL +  LGT RAIN  56  56 100 S13       29.90F
LAFAYETTE      CLOUDY    59  55  87 S10G18    29.89S
TERRE HAUTE    CLOUDY    59  53  80 SW12      29.91S

$$

INZ030>032-037>040-046>048-054>057-064-065-261700-
CENTRAL INDIANA

CITY           SKY/WX    TMP DP  RH WIND       PRES   REMARKS
CP ATTERBURY + RAIN      59  54  82 S10G17    29.96R
COLUMBUS       CLOUDY    57  57 100 S14       29.94F
INDIANAPOLIS   CLOUDY    58  54  86 S17       29.91F
-EAGLE CREEK   LGT RAIN  59  54  83 S8        29.92S
KOKOMO +       LGT RAIN  58  56  93 S12       29.92F
SHELBYVILLE    LGT RAIN  61  54  77 S16       29.94S

$$

INZ033-034-041-042-049-050-058-059-261700-
EAST CENTRAL INDIANA

CITY           SKY/WX    TMP DP  RH WIND       PRES   REMARKS
MUNCIE         PTSUNNY   62  55  77 S15G23    29.93S
RICHMOND +     CLOUDY    55  54  94 S16       29.98S

$$

INZ060-061-067>069-081>083-085>088-261700-
SOUTHWEST INDIANA

CITY           SKY/WX    TMP DP  RH WIND       PRES   REMARKS
EVANSVILLE     LGT RAIN  60  55  83 S14       29.95S
HUNTINGBURG *+ CLOUDY    60  56  86 S13       29.95F

$$

INZ062-063-066-070>080-084-089>092-261700-
SOUTH CENTRAL AND SOUTHEAST INDIANA

CITY           SKY/WX    TMP DP  RH WIND       PRES   REMARKS
BLOOMINGTON    CLOUDY    60  55  83 S12       29.93S
MADISON *+     CLOUDY    59  55  88 S6        29.99F
SEYMOUR +      CLOUDY    63  59  88 S7G17     29.96

$$





USA.gov is the U.S. government's official web portal to all federal, state and local government web resources and services.